{"data":{"norad_id":37869,"intl_designator":"2011-064C","name":"COSMOS 2475 (743)","alt_names":[],"object_type":"PAYLOAD","status":"ACTIVE","operator":null,"country":"CIS","launch_date":"2011-11-04","launch_site_code":"TYMSC","launch_vehicle":null,"mission":null,"orbit_class":"UNKNOWN","rcs_meters":6.3096,"size_class":null,"mass_kg":null,"dimensions":null,"purposes":["nav"],"wikipedia_slug":null,"has_3d_model":false,"image_url":null,"decayed_at":null,"tle_current":{"epoch":"2026-05-23T02:54:15.148224Z","epoch_age_seconds":230605,"freshness":"STALE","line1":"1 37869U 11064C   26143.12100866 -.00000019  00000+0  00000+0 0  9994","line2":"2 37869  65.2702  73.8176 0026437 254.8346 255.4190  2.13101675113235","mean_motion":2.13101675,"eccentricity":0.0026437,"inclination_deg":65.2702,"raan_deg":73.8176,"arg_perigee_deg":254.8346,"mean_anomaly_deg":255.419,"bstar":0,"rev_number":11323,"period_min":675.73377825397,"perigee_km":19062.477729532,"apogee_km":19197.348995017,"semimajor_km":25508.050362274,"source":"CELESTRAK","updated_at":"2026-05-25T13:38:23.892593Z"}}}